カタログに戻る

THOR DELTA 1 R/B

運用中PO
NORAD 12889·ROCKET BODY·🇺🇸 United States

打ち上げ Oct 6, 1981 から Vandenberg Space Force Base

Loading…

次のパス (今後24時間)

TLE

最新Source: Space-Track

元期: Sep 14, 2026, 01:47 UTC

1 12889U 81100C   26257.07497455  .00000178  00000-0  10024-3 0  9997
2 12889  99.8693 108.5633 1307092  95.4660  55.1418 12.20209560992182

AllMySatでTHOR DELTA 1 R/Bをリアルタイム追跡

Download on the App Store